SCP
0 0 0 0 0 0 0 0 0 0 0 0 0 0 0 0 0 0 0 0 0 0 0 0 0 0 0 0 0 0 0 0 0 0 0 0 0 0
0 0 0 0 0 0 0 0 0 0 0 0 0 0 0 0 0 0 0 0 0 0 0 0 0 0 0 0 0 0 0 0 0 0 0 0 0 0
0 0 0 0 0 0 0 0 0 0 0 0 0 0 0 0 0 0 0 0 0 0 0 0 0 0 0 0 0 0 0 0 0 0 0 0 0 0
0 0 0 0 0 0 0 0 0 0 0 0 0 0 0 0 0 0 0 0 0 0 0 0 0 0 0 0 0 0 0 0 0 0 0 0 0 0
0 0 0 0 0 0 0 0 0 0 0 0 0 0 0 0 0 0 0 0 0 0 0 0 0 0 0 0 0 0 0 0 0 0 0 0 0 0
0 0 0 0 0 0 0 0 0 0 0 0 0 0 0 0 0 0 0 0 0 0 0 0 0 0 0 0 0 0 0 0 0 0 0 0 0 0
0 0 0 0 0 0 0 0 0 0 0 0 0 0 0 0 0 0 0 0 0 0 0 0 0 0 0 0 0 0 0 0 0 0 0 0 0 0
0 0 0 0 0 0 0 0 0 0 0 0 0 0 0 0 0 0 0 0 0 0 0 0 0 0 0 0 0 0 0 0 0 0 0 0 0 0
0 0 0 0 0 0 0 0 0 0 0 0 0 0 0 0 0 0 0 0 0 0 0 0 0 0 0 0 0 0 0 0 0 0 0 0 0 0
0 0 0 0 0 0 0 0 0 0 0 0 0 0 0 0 0 0 0 0 0 0 0 0 0 0 0 0 0 0 0 0 0 0 0 0 0 0
0 0 0 0 0 0 0 0 0 0 0 0 0 0 0 0 0 0 0 0 0 0 0 0 0 0 0 0 0 0 0 0 0 0 0 0 0 0
0 0 0 0 0 0 0 0 0 0 0 0 0 0 0 0 0 0 0 0 0 0 0 0 0 0 0 0 0 0 0 0 0 0 0 0 0 0
0 0 0 0 0 0 0 0 0 0 0 0 0 0 0 0 0 0 0 0 0 0 0 0 0 0 0 0 0 0 0 0 0 0 0 0 0 0
0 0 0 0 0 0 0 0 0 0 0 0 0 0 0 0 0 0 0 0 0 0 0 0 0 0 0 0 0 0 0 0 0 0 0 0 0 0
0 0 0 0 0 0 0 0 0 0 0 0 0 0 0 0 0 0 0 0 0 0 0 0 0 0 0 0 0 0 0 0 0 0 0 0 0 0
0 0 0 0 0 0 0 0 0 0 0 0 0 0 0 0 0 0 0 0 0 0 0 0 0 0 0 0 0 0 0 0 0 0 0 0 0 0
0 0 0 0 0 0 0 0 0 0 0 0 0 0 0 0 0 0 0 0 0 0 0 0 0 0 0 0 0 0 0 0 0 0 0 0 0 0
0 0 0 0 0 0 0 0 0 0 0 0 0 0 0 0 0 0 0 0 0 0 0 0 0 0 0 0 0 0 0 0 0 0 0 0 0 0
0 0 0 0 0 0 0 0 0 0 0 0 0 0 0 0 0 0 0 0 0 0 0 0 0 0 0 0 0 0 0 0 0 0 0 0 0 0
0 0 0 0 0 0 0 0 0 0 0 0 0 0 0 0 0 0 0 0 0 0 0 0 0 0 0 0 0 0 0 0 0 0 0 0 0 0
0 0 0 0 0 0 0 0 0 0 0 0 0 0 0 0 0 0 0 0 0 0 0 0 0 0 0 0 0 0 0 0 0 0 0 0 0 0
0 0 0 0 0 0 0 0 0 0 0 0 0 0 0 0 0 0 0 0 0 0 0 0 0 0 0 0 0 0 0 0 0 0 0 0 0 0
0 0 0 0 0 0 0 0 0 0 0 0 0 0 0 0 0 0 0 0 0 0 0 0 0 0 0 0 0 0 0 0 0 0 0 0 0 0
Wind_Speed
5 5 5 5 4 5 5 6 6 7 7 6 4 5 5 5 7 8 8 10 12 12 12 12 11 11 11 11 11 11 12 12 12 13 13 13 13 12
4 5 6 5 5 5 5 5 6 7 7 5 6 6 7 6 8 8 9 11 11 11 11 11 11 11 11 11 11 10 10 10 10 11 12 13 13 13
4 5 6 6 5 5 5 5 6 6 8 7 6 7 8 8 7 7 7 8 7 10 11 11 11 10 10 11 11 10 11 11 10 11 12 13 13 13
5 5 6 5 6 6 5 6 6 6 7 9 7 7 8 8 8 8 7 6 7 9 10 11 11 11 10 10 11 10 10 10 11 11 12 12 13 13
4 5 6 6 7 6 6 6 6 6 6 7 8 7 6 6 7 7 8 6 7 7 9 9 10 10 10 11 11 11 10 10 10 11 11 12 12 12
4 5 5 6 6 7 6 7 7 6 6 7 7 6 6 6 6 6 6 6 6 6 7 7 8 9 10 11 11 10 10 11 11 11 11 11 10 11
4 5 5 6 8 7 6 6 6 6 6 6 6 6 6 5 6 5 7 6 7 6 6 6 6 6 6 8 9 9 10 10 11 11 10 10 9 10
5 5 5 6 7 8 9 9 8 7 6 6 6 7 7 7 6 6 6 7 6 4 6 7 6 6 5 5 6 8 9 9 9 9 9 9 8 8
5 5 4 5 7 6 7 9 8 9 10 8 8 8 8 7 7 8 7 8 8 6 6 7 6 6 6 5 8 8 9 9 9 9 8 8 9 8
5 5 6 6 6 7 7 7 7 7 8 7 7 8 8 8 8 8 8 8 8 6 5 7 6 7 6 6 7 8 9 9 8 8 8 8 9 9
5 5 6 6 8 9 7 7 8 7 8 10 11 11 11 11 9 6 6 6 7 5 4 5 5 6 6 6 6 7 7 8 8 9 9 9 8 8
5 5 6 8 9 9 6 7 8 8 8 8 9 8 8 8 8 7 6 6 6 5 3 4 4 4 5 4 4 5 5 7 9 9 9 8 7 5
4 4 5 8 10 9 8 6 8 9 8 7 7 6 5 5 5 5 6 6 6 6 4 4 4 4 5 5 5 5 4 5 5 5 6 6 6 5
5 5 5 8 9 9 8 7 9 9 5 5 5 5 5 5 5 5 6 6 6 7 6 6 5 5 5 6 5 4 4 4 4 4 3 4 5 6
5 7 8 9 9 7 7 9 8 5 4 5 5 5 5 6 5 5 5 5 6 6 5 6 6 5 5 6 6 5 5 4 3 3 3 3 3 3
4 6 8 7 6 7 7 6 4 4 4 5 5 5 5 5 5 4 4 4 4 4 4 5 6 6 6 6 5 5 4 3 3 3 3 3 3 3
5 4 4 4 4 4 4 4 4 4 4 4 4 5 5 4 4 4 4 4 4 5 5 4 3 4 5 5 5 5 4 4 4 4 3 3 3 3
5 4 3 4 4 5 5 5 5 4 5 5 5 5 5 5 5 4 4 4 4 4 4 4 4 4 3 2 3 4 4 4 3 3 3 3 3 3
4 3 4 4 4 5 5 5 5 5 5 5 5 5 4 5 5 5 4 4 4 4 4 4 4 4 4 5 3 2 3 3 3 3 3 3 4 3
3 4 4 4 4 5 5 5 5 5 5 5 5 5 4 4 4 5 5 5 5 4 4 3 3 3 4 4 3 3 4 4 3 3 3 3 3 3
4 4 4 4 5 5 5 5 5 5 5 5 5 5 5 5 5 5 5 6 5 4 5 4 4 5 4 3 3 3 3 4 4 3 3 2 3 2
4 4 4 5 5 5 5 5 5 5 5 5 5 5 5 5 5 5 5 4 4 4 5 4 3 3 2 3 3 3 3 3 3 3 3 3 2 2
4 4 4 5 5 5 5 6 6 5 5 5 5 5 5 5 4 4 5 4 4 4 4 4 3 2 2 3 3 3 3 3 2 2 2 3 4 5
Wind_Direction
259 258 258 261 261 264 266 264 271 279 279 284 283 281 286 287 295 292 293 296 293 288 288 287 283 281 282 281 277 274 272 269 267 264 263 263 262 260
263 261 260 263 265 264 263 265 263 267 275 283 286 291 294 290 296 293 293 301 295 293 291 290 289 288 286 282 278 276 276 275 270 266 265 264 262 261
264 265 269 268 268 267 266 264 260 259 268 280 285 289 291 290 294 294 294 292 292 293 294 293 290 288 287 284 280 275 273 273 271 269 268 266 262 260
271 270 271 275 271 270 267 266 266 264 265 275 282 285 285 288 292 293 295 292 290 292 290 289 288 286 285 282 277 272 270 271 269 267 267 267 265 261
282 281 281 277 275 274 270 269 268 267 266 270 278 285 289 288 293 293 294 291 290 290 286 287 285 285 286 285 278 272 270 269 266 265 268 268 267 261
286 285 285 284 283 283 276 270 268 268 267 270 277 284 288 290 291 293 294 291 292 292 293 293 292 287 283 283 276 268 267 267 265 262 262 262 263 263
288 289 289 291 292 289 285 287 280 274 273 273 277 283 287 295 293 294 291 294 293 289 293 292 291 287 285 282 277 269 265 265 265 263 263 263 259 257
288 290 290 288 291 288 288 287 283 277 276 276 276 278 283 288 289 290 290 291 291 293 292 291 290 286 286 283 289 285 275 270 268 266 266 268 265 260
289 291 292 296 294 290 291 289 287 281 274 273 274 276 280 284 287 286 283 285 284 290 287 285 288 286 287 288 288 284 283 280 276 274 270 267 266 263
292 294 297 300 300 299 296 295 293 290 282 273 271 276 278 280 276 276 278 280 281 282 278 279 286 289 295 288 288 283 283 282 278 275 271 269 267 265
296 298 299 298 305 302 298 296 296 294 294 287 283 284 286 286 284 279 275 273 280 283 276 272 282 293 291 285 287 283 280 280 278 276 271 266 264 265
298 298 299 301 307 308 298 296 295 297 301 301 290 285 283 281 277 268 270 271 280 280 272 272 280 294 291 283 290 290 285 284 284 281 275 264 263 263
297 298 301 307 307 305 299 293 296 299 296 293 294 292 290 287 283 277 273 267 269 269 271 269 275 276 273 288 294 291 291 294 293 285 279 270 264 258
295 299 304 309 307 306 303 303 303 302 294 293 292 294 292 290 289 285 280 275 272 273 275 269 266 269 275 282 286 293 295 294 294 291 284 279 268 262
297 304 306 308 307 304 305 306 304 300 299 294 293 294 298 295 290 288 289 286 285 281 278 275 271 269 265 269 279 285 291 296 293 292 295 288 278 268
297 301 305 307 303 302 306 306 303 303 300 293 295 299 298 297 294 291 291 292 291 293 294 286 279 275 269 271 272 278 280 281 288 290 292 292 290 275
301 296 298 304 307 309 308 308 307 306 303 302 298 298 299 299 300 298 289 285 281 290 301 307 300 290 283 277 274 273 278 282 285 288 287 288 287 281
298 291 296 301 304 306 307 308 306 303 302 300 296 294 296 301 302 301 295 288 286 289 294 301 304 302 291 279 265 272 280 284 290 290 287 279 283 286
300 295 297 300 301 302 301 301 301 301 299 296 294 296 297 296 297 297 296 292 290 289 292 295 295 289 288 294 299 257 274 287 288 289 286 281 282 284
299 299 301 301 298 297 297 297 297 299 297 294 293 294 294 292 292 293 294 296 295 295 296 294 290 288 280 284 289 293 280 277 278 283 291 292 292 294
301 301 300 301 301 299 298 297 296 293 294 294 293 293 292 290 288 288 291 296 295 294 293 292 292 293 286 281 278 288 301 292 280 276 285 285 292 295
301 300 301 302 302 302 301 300 298 295 294 292 293 292 290 289 289 290 289 291 291 291 293 298 303 300 285 274 284 295 308 316 311 301 290 277 271 268
302 301 300 301 300 301 302 303 302 299 297 297 296 295 293 293 294 292 291 285 285 290 295 301 307 303 292 284 287 296 307 319 322 323 323 309 284 279